GW1707 Weather Reports


Display with metric or nautical units.
time (UTC)temp
F
wind
direction
speed
MPH
gust
MPH
rain 1hr
in
rain 24hr
in
rain mn
in
humidity
%
barometer
mb
20260510033056 56 0 0.0 0.0 0.00 0.07 0.01 96 1031.1
20260510031600 56 0 0.0 0.0 0.00 0.07 0.01 97 1031.2
20260510030051 55 0 0.0 0.0 0.00 0.07 0.01 98 1031.3
20260510024555 56 0 0.0 0.0 0.00 0.07 0.01 98 1031.5
20260510023053 55 0 0.0 0.0 0.00 0.07 0.01 98 1031.9
20260510021553 53 0 0.0 0.0 0.00 0.07 0.01 98 1032.1
20260510020050 53 0 0.0 0.0 0.00 0.07 0.01 98 1032.2
20260510014601 53 0 0.0 0.0 0.00 0.07 0.01 98 1032.4
20260510013109 54 0 0.0 0.0 0.00 0.07 0.01 98 1032.4
20260510011554 53 0 0.0 0.0 0.00 0.09 0.01 98 1032.5
20260510010050 53 0 0.0 0.0 0.00 0.09 0.01 98 1032.5
20260510004550 53 0 0.0 0.0 0.00 0.09 0.01 98 1032.4
20260510003054 53 0 0.0 0.0 0.00 0.09 0.01 98 1032.4
20260510001554 53 0 0.0 0.0 0.00 0.10 0.01 98 1032.4
20260510000057 52 0 0.0 0.0 0.00 0.10 0.01 98 1032.4
20260509234548 52 0 0.0 0.0 0.00 0.10 0.01 98 1032.3
20260509233055 52 0 0.0 0.0 0.00 0.10 0.01 98 1032.4
20260509231558 51 0 0.0 0.0 0.00 0.10 0.01 98 1032.3
20260509230054 51 0 0.0 0.0 0.00 0.10 0.01 98 1032.2
20260509224552 51 0 0.0 0.0 0.00 0.10 0.01 98 1032.1
20260509223054 51 0 0.0 0.0 0.00 0.10 0.01 98 1032.0
20260509221554 50 0 0.0 0.0 0.00 0.11 0.01 98 1031.8
20260509220057 50 0 0.0 0.0 0.00 0.11 0.01 98 1031.6
20260509214555 50 0 0.0 0.0 0.00 0.11 0.01 98 1031.5
20260509213053 50 0 0.0 0.0 0.00 0.11 0.01 98 1031.3
20260509211554 50 0 0.0 0.0 0.00 0.11 0.01 98 1031.1
20260509210107 50 0 0.0 0.0 0.00 0.11 0.01 98 1031.1
20260509204557 50 0 0.0 0.0 0.00 0.11 0.01 98 1030.9
20260509203052 50 0 0.0 0.0 0.00 0.11 0.01 98 1030.7
20260509201553 50 0 0.0 0.0 0.00 0.11 0.01 98 1030.7
20260509200106 50 0 0.0 0.0 0.00 0.11 0.01 98 1030.6
20260509194550 50 0 0.0 0.0 0.00 0.11 0.01 98 1030.5
20260509193055 50 0 0.0 0.0 0.00 0.11 0.01 98 1030.4
20260509191554 50 0 0.0 0.0 0.00 0.11 0.01 98 1030.3
20260509190057 50 0 0.0 0.0 0.00 0.11 0.01 98 1030.1
20260509184645 50 0 0.0 0.0 0.00 0.11 0.01 98 1030.0
20260509183101 50 0 0.0 0.0 0.00 0.11 0.01 98 1030.0
20260509181556 50 0 0.0 0.0 0.00 0.12 0.01 98 1030.0
20260509180108 50 0 0.0 0.0 0.00 0.12 0.01 98 1029.9
20260509174553 51 0 0.0 0.0 0.00 0.12 0.01 98 1029.8
20260509173054 51 0 0.0 0.0 0.00 0.12 0.01 98 1029.9
20260509171552 51 0 0.0 0.0 0.00 0.12 0.01 98 1030.0
20260509170100 51 0 0.0 0.0 0.00 0.12 0.01 98 1030.0
20260509164554 51 0 0.0 0.0 0.00 0.12 0.01 98 1030.2
20260509163106 50 0 0.0 0.0 0.00 0.12 0.01 98 1030.3
20260509161552 50 0 0.0 0.0 0.00 0.12 0.01 98 1030.3
20260509160057 50 0 0.0 0.0 0.00 0.11 0.00 98 1030.5
20260509154558 50 0 0.0 0.0 0.00 0.11 0.00 98 1030.5
20260509153058 51 0 0.0 0.0 0.00 0.11 0.00 98 1030.5
20260509151556 51 0 0.0 0.0 0.00 0.11 0.00 98 1030.6
20260509150055 51 0 0.0 0.0 0.01 0.11 0.00 98 1030.7
20260509144555 51 0 0.0 0.0 0.00 0.11 0.00 98 1030.7
20260509143055 51 0 0.0 0.0 0.00 0.11 0.00 98 1030.8
20260509141600 51 0 0.0 0.0 0.01 0.11 0.11 98 1030.8
20260509134551 51 0 0.0 0.0 0.02 0.11 0.10 98 1030.6
20260509133054 51 0 0.0 0.0 0.02 0.11 0.10 98 1030.7
20260509131551 51 0 0.0 0.0 0.01 0.10 0.09 98 1030.7
20260509130051 52 0 0.0 0.0 0.00 0.09 0.08 98 1031.0
20260509124558 52 0 0.0 0.0 0.00 0.08 0.07 98 1031.1
20260509123056 51 0 0.0 0.0 0.00 0.08 0.07 98 1031.0
20260509121552 51 0 0.0 0.0 0.00 0.09 0.07 98 1031.0
20260509120055 51 0 0.0 0.0 0.00 0.09 0.07 98 1031.0
20260509114554 51 0 0.0 0.0 0.00 0.09 0.07 98 1030.8
20260509113113 51 0 0.0 0.0 0.00 0.09 0.07 98 1030.7
20260509111600 51 0 0.0 0.0 0.00 0.10 0.07 98 1030.8
20260509110052 51 0 0.0 0.0 0.00 0.10 0.07 98 1030.9
20260509104559 51 0 0.0 0.0 0.00 0.10 0.07 98 1030.9
20260509103059 51 0 0.0 0.0 0.00 0.10 0.07 98 1030.9
20260509101551 51 0 0.0 0.0 0.00 0.10 0.07 98 1031.0
20260509100108 51 0 0.0 0.0 0.00 0.10 0.07 98 1031.0
20260509094556 51 0 0.0 0.0 0.00 0.10 0.07 98 1031.1
20260509093101 52 0 0.0 0.0 0.00 0.10 0.07 98 1031.0
20260509091603 52 0 0.0 0.0 0.00 0.10 0.07 98 1030.9
20260509090054 52 0 0.0 0.0 0.00 0.10 0.07 98 1031.1
20260509084553 51 0 0.0 0.0 0.00 0.10 0.07 98 1031.0
20260509083056 52 0 0.0 0.0 0.00 0.10 0.07 98 1030.9
20260509081558 52 0 0.0 0.0 0.00 0.10 0.07 98 1030.8
20260509080057 52 0 0.0 0.0 0.00 0.10 0.07 98 1030.7
20260509074555 52 0 0.0 0.0 0.00 0.10 0.07 98 1030.6
20260509073104 53 0 0.0 0.0 0.00 0.10 0.07 98 1030.6
20260509071557 53 0 0.0 0.0 0.00 0.10 0.07 98 1030.4
20260509070059 53 0 0.0 0.0 0.00 0.10 0.07 98 1030.3
20260509064557 53 0 0.0 0.0 0.00 0.10 0.07 98 1030.3
20260509063104 53 0 0.0 0.0 0.00 0.10 0.07 98 1030.2
20260509061611 54 0 0.0 0.0 0.00 0.09 0.07 98 1030.2
20260509060058 54 0 0.0 0.0 0.00 0.09 0.07 98 1030.2
20260509054605 54 0 0.0 0.0 0.00 0.09 0.07 98 1030.3
20260509053101 55 0 0.0 0.0 0.00 0.09 0.07 98 1030.3
20260509051556 55 0 0.0 0.0 0.00 0.09 0.07 98 1030.3
20260509050057 55 0 0.0 0.0 0.00 0.08 0.06 98 1030.3
20260509044557 55 0 0.0 0.0 0.00 0.08 0.06 98 1030.3
20260509043101 54 0 0.0 0.0 0.00 0.08 0.06 98 1030.2
20260509041556 55 0 0.0 0.0 0.01 0.08 0.06 98 1030.3
20260509040057 55 0 0.0 0.0 0.01 0.08 0.06 98 1030.3
20260509034559 55 0 0.0 0.0 0.01 0.08 0.06 98 1030.4